Location: Omaha
(41.2590°N, 95.9380°W)
Time: 19:16:26
(UTC-05:00)

Tiangong 1 - Pass Details

Date: 11 October 2017
Orbit: 292 x 319 km, 42.8° (Epoch: 23 October)

Event Time Altitude Azimuth Distance (km) Brightness Sun altitude
Rises 20:02:29 0° 280° (W) 2,042 6.6 -14.7°
Reaches altitude 10° 20:04:29 10° 284° (WNW) 1,206 4.9 -15.0°
Maximum altitude 20:07:10 67° 7° (N) 339 0.7 -15.5°
Enters shadow 20:07:36 53° 63° (ENE) 385 0.7 -15.6°
